Year,Month,Day,Hour,Minute,Value (Times are PST for temperature in C)
2019,07,06,00,00,12.80
2019,07,06,00,01,12.80
2019,07,06,00,02,12.80
2019,07,06,00,03,12.80
2019,07,06,00,04,12.80
2019,07,06,00,05,12.70
2019,07,06,00,06,12.70
2019,07,06,00,07,12.70
2019,07,06,00,08,12.70
2019,07,06,00,09,12.70
2019,07,06,00,10,12.60
2019,07,06,00,11,12.60
2019,07,06,00,12,12.60
2019,07,06,00,13,12.60
2019,07,06,00,14,12.50
2019,07,06,00,15,12.50
2019,07,06,00,16,12.50
2019,07,06,00,17,12.50
2019,07,06,00,18,12.40
2019,07,06,00,19,12.40
2019,07,06,00,20,12.40
2019,07,06,00,21,12.40
2019,07,06,00,22,12.30
2019,07,06,00,23,12.30
2019,07,06,00,24,12.30
2019,07,06,00,25,12.30
2019,07,06,00,26,12.30
2019,07,06,00,27,12.30
2019,07,06,00,28,12.30
2019,07,06,00,29,12.30
2019,07,06,00,30,12.20
2019,07,06,00,31,12.20
2019,07,06,00,32,12.20
2019,07,06,00,33,12.20
2019,07,06,00,34,12.20
2019,07,06,00,35,12.20
2019,07,06,00,36,12.20
2019,07,06,00,37,12.20
2019,07,06,00,38,12.20
2019,07,06,00,39,12.20
2019,07,06,00,40,12.20
2019,07,06,00,41,12.10
2019,07,06,00,42,12.10
2019,07,06,00,43,12.10
2019,07,06,00,44,12.10
2019,07,06,00,45,12.10
2019,07,06,00,46,12.00
2019,07,06,00,47,12.00
2019,07,06,00,48,12.00
2019,07,06,00,49,12.00
2019,07,06,00,50,12.00
2019,07,06,00,51,12.00
2019,07,06,00,52,12.00
2019,07,06,00,53,11.90
2019,07,06,00,54,11.90
2019,07,06,00,55,11.90
2019,07,06,00,56,11.90
2019,07,06,00,57,11.90
2019,07,06,00,58,11.90
2019,07,06,00,59,11.90
2019,07,06,01,00,11.90
2019,07,06,01,01,11.90
2019,07,06,01,02,11.90
2019,07,06,01,03,11.90
2019,07,06,01,04,11.90
2019,07,06,01,05,11.90
2019,07,06,01,06,11.80
2019,07,06,01,07,11.90
2019,07,06,01,08,11.90
2019,07,06,01,09,11.90
2019,07,06,01,10,11.90
2019,07,06,01,11,11.90
2019,07,06,01,12,11.90
2019,07,06,01,13,11.90
2019,07,06,01,14,11.90
2019,07,06,01,15,11.90
2019,07,06,01,16,11.90
2019,07,06,01,17,11.90
2019,07,06,01,18,11.90
2019,07,06,01,19,11.90
2019,07,06,01,20,11.90
2019,07,06,01,21,11.90
2019,07,06,01,22,11.90
2019,07,06,01,23,11.90
2019,07,06,01,24,11.90
2019,07,06,01,25,11.90
2019,07,06,01,26,11.90
2019,07,06,01,27,11.90
2019,07,06,01,28,11.90
2019,07,06,01,29,11.90
2019,07,06,01,30,11.90
2019,07,06,01,31,11.90
2019,07,06,01,32,11.90
2019,07,06,01,33,11.90
2019,07,06,01,34,11.90
2019,07,06,01,35,11.90
2019,07,06,01,36,11.90
2019,07,06,01,37,11.90
2019,07,06,01,38,11.90
2019,07,06,01,39,11.90
2019,07,06,01,40,11.90
2019,07,06,01,41,11.90
2019,07,06,01,42,11.90
2019,07,06,01,43,11.90
2019,07,06,01,44,11.90
2019,07,06,01,45,11.90
2019,07,06,01,46,11.90
2019,07,06,01,47,11.90
2019,07,06,01,48,11.90
2019,07,06,01,49,11.90
2019,07,06,01,50,11.90
2019,07,06,01,51,11.90
2019,07,06,01,52,11.90
2019,07,06,01,53,11.90
2019,07,06,01,54,11.90
2019,07,06,01,55,11.90
2019,07,06,01,56,11.90
2019,07,06,01,57,11.90
2019,07,06,01,58,11.90
2019,07,06,01,59,11.90
2019,07,06,02,00,11.90
2019,07,06,02,01,11.90
2019,07,06,02,02,11.90
2019,07,06,02,03,11.90
2019,07,06,02,04,11.90
2019,07,06,02,05,11.90
2019,07,06,02,06,11.90
2019,07,06,02,07,11.90
2019,07,06,02,08,12.00
2019,07,06,02,09,12.00
2019,07,06,02,10,12.00
2019,07,06,02,11,12.00
2019,07,06,02,12,12.00
2019,07,06,02,13,12.00
2019,07,06,02,14,12.00
2019,07,06,02,15,12.00
2019,07,06,02,16,12.00
2019,07,06,02,17,12.00
2019,07,06,02,18,12.00
2019,07,06,02,19,12.00
2019,07,06,02,20,12.00
2019,07,06,02,21,12.00
2019,07,06,02,22,12.00
2019,07,06,02,23,12.00
2019,07,06,02,24,12.00
2019,07,06,02,25,12.00
2019,07,06,02,26,12.00
2019,07,06,02,27,12.00
2019,07,06,02,28,12.00
2019,07,06,02,29,12.00
2019,07,06,02,30,11.90
2019,07,06,02,31,11.90
2019,07,06,02,32,11.90
2019,07,06,02,33,11.90
2019,07,06,02,34,11.90
2019,07,06,02,35,11.90
2019,07,06,02,36,11.90
2019,07,06,02,37,11.90
2019,07,06,02,38,11.90
2019,07,06,02,39,11.90
2019,07,06,02,40,11.90
2019,07,06,02,41,11.90
2019,07,06,02,42,11.90
2019,07,06,02,43,11.90
2019,07,06,02,44,11.90
2019,07,06,02,45,11.90
2019,07,06,02,46,11.90
2019,07,06,02,47,11.80
2019,07,06,02,48,11.80
2019,07,06,02,49,11.80
2019,07,06,02,50,11.80
2019,07,06,02,51,11.80
2019,07,06,02,52,11.80
2019,07,06,02,53,11.80
2019,07,06,02,54,11.80
2019,07,06,02,55,11.80
2019,07,06,02,56,11.80
2019,07,06,02,57,11.80
2019,07,06,02,58,11.80
2019,07,06,02,59,11.80
2019,07,06,03,00,11.80
2019,07,06,03,01,11.80
2019,07,06,03,02,11.80
2019,07,06,03,03,11.80
2019,07,06,03,04,11.80
2019,07,06,03,05,11.80
2019,07,06,03,06,11.80
2019,07,06,03,07,11.80
2019,07,06,03,08,11.80
2019,07,06,03,09,11.80
2019,07,06,03,10,11.80
2019,07,06,03,11,11.80
2019,07,06,03,12,11.80
2019,07,06,03,13,11.80
2019,07,06,03,14,11.80
2019,07,06,03,15,11.80
2019,07,06,03,16,11.80
2019,07,06,03,17,11.80
2019,07,06,03,18,11.80
2019,07,06,03,19,11.70
2019,07,06,03,20,11.70
2019,07,06,03,21,11.70
2019,07,06,03,22,11.70
2019,07,06,03,23,11.70
2019,07,06,03,24,11.70
2019,07,06,03,25,11.80
2019,07,06,03,26,11.80
2019,07,06,03,27,11.80
2019,07,06,03,28,11.80
2019,07,06,03,29,11.80
2019,07,06,03,30,11.80
2019,07,06,03,31,11.80
2019,07,06,03,32,11.80
2019,07,06,03,33,11.80
2019,07,06,03,34,11.80
2019,07,06,03,35,11.90
2019,07,06,03,36,11.90
2019,07,06,03,37,11.90
2019,07,06,03,38,11.90
2019,07,06,03,39,12.00
2019,07,06,03,40,12.00
2019,07,06,03,41,12.00
2019,07,06,03,42,12.00
2019,07,06,03,43,12.10
2019,07,06,03,44,12.10
2019,07,06,03,45,12.10
2019,07,06,03,46,12.10
2019,07,06,03,47,12.10
2019,07,06,03,48,12.20
2019,07,06,03,49,12.20
2019,07,06,03,50,12.20
2019,07,06,03,51,12.30
2019,07,06,03,52,12.30
2019,07,06,03,53,12.30
2019,07,06,03,54,12.30
2019,07,06,03,55,12.30
2019,07,06,03,56,12.30
2019,07,06,03,57,12.30
2019,07,06,03,58,12.30
2019,07,06,03,59,12.30
2019,07,06,04,00,12.30
2019,07,06,04,01,12.30
2019,07,06,04,02,12.30
2019,07,06,04,03,12.30
2019,07,06,04,04,12.30
2019,07,06,04,05,12.30
2019,07,06,04,06,12.30
2019,07,06,04,07,12.40
2019,07,06,04,08,12.40
2019,07,06,04,09,12.40
2019,07,06,04,10,12.40
2019,07,06,04,11,12.40
2019,07,06,04,12,12.40
2019,07,06,04,13,12.40
2019,07,06,04,14,12.40
2019,07,06,04,15,12.40
2019,07,06,04,16,12.40
2019,07,06,04,17,12.40
2019,07,06,04,18,12.40
2019,07,06,04,19,12.40
2019,07,06,04,20,12.40
2019,07,06,04,21,12.40
2019,07,06,04,22,12.40
2019,07,06,04,23,12.40
2019,07,06,04,24,12.40
2019,07,06,04,25,12.40
2019,07,06,04,26,12.40
2019,07,06,04,27,12.40
2019,07,06,04,28,12.40
2019,07,06,04,29,12.40
2019,07,06,04,30,12.40
2019,07,06,04,31,12.40
2019,07,06,04,32,12.40
2019,07,06,04,33,12.40
2019,07,06,04,34,12.50
2019,07,06,04,35,12.50
2019,07,06,04,36,12.50
2019,07,06,04,37,12.50
2019,07,06,04,38,12.50
2019,07,06,04,39,12.50
2019,07,06,04,40,12.60
2019,07,06,04,41,12.60
2019,07,06,04,42,12.60
2019,07,06,04,43,12.60
2019,07,06,04,44,12.50
2019,07,06,04,45,12.50
2019,07,06,04,46,12.50
2019,07,06,04,47,12.40
2019,07,06,04,48,12.30
2019,07,06,04,49,12.30
2019,07,06,04,50,12.30
2019,07,06,04,51,12.20
2019,07,06,04,52,12.10
2019,07,06,04,53,12.00
2019,07,06,04,54,12.00
2019,07,06,04,55,12.00
2019,07,06,04,56,11.90
2019,07,06,04,57,11.90
2019,07,06,04,58,11.90
2019,07,06,04,59,11.90
2019,07,06,05,00,11.90
2019,07,06,05,01,11.90
2019,07,06,05,02,11.90
2019,07,06,05,03,11.90
2019,07,06,05,04,11.90
2019,07,06,05,05,11.90
2019,07,06,05,06,11.90
2019,07,06,05,07,11.90
2019,07,06,05,08,11.90
2019,07,06,05,09,11.90
2019,07,06,05,10,11.90
2019,07,06,05,11,11.90
2019,07,06,05,12,11.90
2019,07,06,05,13,11.90
2019,07,06,05,14,11.90
2019,07,06,05,15,11.90
2019,07,06,05,16,11.90
2019,07,06,05,17,11.90
2019,07,06,05,18,11.90
2019,07,06,05,19,12.00
2019,07,06,05,20,12.00
2019,07,06,05,21,12.00
2019,07,06,05,22,12.00
2019,07,06,05,23,12.00
2019,07,06,05,24,12.00
2019,07,06,05,25,12.00
2019,07,06,05,26,12.00
2019,07,06,05,27,12.10
2019,07,06,05,28,12.10
2019,07,06,05,29,12.10
2019,07,06,05,30,12.10
2019,07,06,05,31,12.10
2019,07,06,05,32,12.20
2019,07,06,05,33,12.20
2019,07,06,05,34,12.20
2019,07,06,05,35,12.20
2019,07,06,05,36,12.30
2019,07,06,05,37,12.30
2019,07,06,05,38,12.30
2019,07,06,05,39,12.30
2019,07,06,05,40,12.30
2019,07,06,05,41,12.30
2019,07,06,05,42,12.30
2019,07,06,05,43,12.30
2019,07,06,05,44,12.40
2019,07,06,05,45,12.50
2019,07,06,05,46,12.50
2019,07,06,05,47,12.60
2019,07,06,05,48,12.50
2019,07,06,05,49,12.40
2019,07,06,05,50,12.30
2019,07,06,05,51,12.30
2019,07,06,05,52,12.20
2019,07,06,05,53,12.20
2019,07,06,05,54,12.10
2019,07,06,05,55,12.10
2019,07,06,05,56,12.10
2019,07,06,05,57,12.10
2019,07,06,05,58,12.10
2019,07,06,05,59,12.00
2019,07,06,06,00,12.00
2019,07,06,06,01,12.00
2019,07,06,06,02,12.00
2019,07,06,06,03,12.10
2019,07,06,06,04,12.10
2019,07,06,06,05,12.10
2019,07,06,06,06,12.10
2019,07,06,06,07,12.10
2019,07,06,06,08,12.10
2019,07,06,06,09,12.10
2019,07,06,06,10,12.10
2019,07,06,06,11,12.10
2019,07,06,06,12,12.10
2019,07,06,06,13,12.10
2019,07,06,06,14,12.10
2019,07,06,06,15,12.20
2019,07,06,06,16,12.20
2019,07,06,06,17,12.20
2019,07,06,06,18,12.20
2019,07,06,06,19,12.20
2019,07,06,06,20,12.20
2019,07,06,06,21,12.20
2019,07,06,06,22,12.30
2019,07,06,06,23,12.30
2019,07,06,06,24,12.30
2019,07,06,06,25,12.30
2019,07,06,06,26,12.30
2019,07,06,06,27,12.30
2019,07,06,06,28,12.30
2019,07,06,06,29,12.30
2019,07,06,06,30,12.30
2019,07,06,06,31,12.40
2019,07,06,06,32,12.40
2019,07,06,06,33,12.40
2019,07,06,06,34,12.40
2019,07,06,06,35,12.40
2019,07,06,06,36,12.40
2019,07,06,06,37,12.40
2019,07,06,06,38,12.40
2019,07,06,06,39,12.40
2019,07,06,06,40,12.40
2019,07,06,06,41,12.40
2019,07,06,06,42,12.50
2019,07,06,06,43,12.50
2019,07,06,06,44,12.50
2019,07,06,06,45,12.50
2019,07,06,06,46,12.60
2019,07,06,06,47,12.60
2019,07,06,06,48,12.60
2019,07,06,06,49,12.60
2019,07,06,06,50,12.70
2019,07,06,06,51,12.70
2019,07,06,06,52,12.70
2019,07,06,06,53,12.70
2019,07,06,06,54,12.70
2019,07,06,06,55,12.70
2019,07,06,06,56,12.70
2019,07,06,06,57,12.80
2019,07,06,06,58,12.80
2019,07,06,06,59,12.80
2019,07,06,07,00,12.80
2019,07,06,07,01,12.80
2019,07,06,07,02,12.80
2019,07,06,07,03,12.80
2019,07,06,07,04,12.80
2019,07,06,07,05,12.80
2019,07,06,07,06,12.80
2019,07,06,07,07,12.80
2019,07,06,07,08,12.80
2019,07,06,07,09,12.80
2019,07,06,07,10,12.80
2019,07,06,07,11,12.80
2019,07,06,07,12,12.80
2019,07,06,07,13,12.80
2019,07,06,07,14,12.80
2019,07,06,07,15,12.80
2019,07,06,07,16,12.90
2019,07,06,07,17,12.90
2019,07,06,07,18,12.90
2019,07,06,07,19,13.00
2019,07,06,07,20,13.00
2019,07,06,07,21,13.00
2019,07,06,07,22,13.00
2019,07,06,07,23,13.10
2019,07,06,07,24,13.10
2019,07,06,07,25,13.10
2019,07,06,07,26,13.20
2019,07,06,07,27,13.20
2019,07,06,07,28,13.20
2019,07,06,07,29,13.20
2019,07,06,07,30,13.10
2019,07,06,07,31,13.10
2019,07,06,07,32,13.10
2019,07,06,07,33,13.00
2019,07,06,07,34,13.00
2019,07,06,07,35,13.00
2019,07,06,07,36,13.00
2019,07,06,07,37,12.90
2019,07,06,07,38,12.90
2019,07,06,07,39,12.80
2019,07,06,07,40,12.80
2019,07,06,07,41,12.80
2019,07,06,07,42,12.80
2019,07,06,07,43,12.80
2019,07,06,07,44,12.90
2019,07,06,07,45,12.90
2019,07,06,07,46,12.90
2019,07,06,07,47,12.90
2019,07,06,07,48,12.80
2019,07,06,07,49,12.80
2019,07,06,07,50,12.80
2019,07,06,07,51,12.80
2019,07,06,07,52,12.80
2019,07,06,07,53,12.80
2019,07,06,07,54,12.80
2019,07,06,07,55,12.80
2019,07,06,07,56,12.80
2019,07,06,07,57,12.80
2019,07,06,07,58,12.90
2019,07,06,07,59,12.90
2019,07,06,08,00,12.90
2019,07,06,08,01,12.90
2019,07,06,08,02,12.90
2019,07,06,08,03,12.90
2019,07,06,08,04,13.00
2019,07,06,08,05,13.00
2019,07,06,08,06,13.00
2019,07,06,08,07,13.10
2019,07,06,08,08,13.10
2019,07,06,08,09,13.10
2019,07,06,08,10,13.20
2019,07,06,08,11,13.20
2019,07,06,08,12,13.20
2019,07,06,08,13,13.30
2019,07,06,08,14,13.30
2019,07,06,08,15,13.30
2019,07,06,08,16,13.30
2019,07,06,08,17,13.40
2019,07,06,08,18,13.40
2019,07,06,08,19,13.50
2019,07,06,08,20,13.50
2019,07,06,08,21,13.50
2019,07,06,08,22,13.60
2019,07,06,08,23,13.60
2019,07,06,08,24,13.60
2019,07,06,08,25,13.60
2019,07,06,08,26,13.70
2019,07,06,08,27,13.70
2019,07,06,08,28,13.70
2019,07,06,08,29,13.60
2019,07,06,08,30,13.60
2019,07,06,08,31,13.60
2019,07,06,08,32,13.60
2019,07,06,08,33,13.50
2019,07,06,08,34,13.50
2019,07,06,08,35,13.50
2019,07,06,08,36,13.50
2019,07,06,08,37,13.50
2019,07,06,08,38,13.50
2019,07,06,08,39,13.50
2019,07,06,08,40,13.50
2019,07,06,08,41,13.50
2019,07,06,08,42,13.60
2019,07,06,08,43,13.60
2019,07,06,08,44,13.60
2019,07,06,08,45,13.60
2019,07,06,08,46,13.60
2019,07,06,08,47,13.70
2019,07,06,08,48,13.70
2019,07,06,08,49,13.70
2019,07,06,08,50,13.70
2019,07,06,08,51,13.70
2019,07,06,08,52,13.70
2019,07,06,08,53,13.70
2019,07,06,08,54,13.70
2019,07,06,08,55,13.70
2019,07,06,08,56,13.70
2019,07,06,08,57,13.70
2019,07,06,08,58,13.70
2019,07,06,08,59,13.70
2019,07,06,09,00,13.70
2019,07,06,09,01,13.70
2019,07,06,09,02,13.70
2019,07,06,09,03,13.80
2019,07,06,09,04,13.80
2019,07,06,09,05,13.80
2019,07,06,09,06,13.80
2019,07,06,09,07,13.90
2019,07,06,09,08,13.90
2019,07,06,09,09,14.00
2019,07,06,09,10,14.00
2019,07,06,09,11,14.00
2019,07,06,09,12,14.10
2019,07,06,09,13,14.10
2019,07,06,09,14,14.10
2019,07,06,09,15,14.20
2019,07,06,09,16,14.20
2019,07,06,09,17,14.30
2019,07,06,09,18,14.40
2019,07,06,09,19,14.40
2019,07,06,09,20,14.50
2019,07,06,09,21,14.60
2019,07,06,09,22,14.70
2019,07,06,09,23,14.80
2019,07,06,09,24,14.80
2019,07,06,09,25,14.90
2019,07,06,09,26,15.00
2019,07,06,09,27,15.00
2019,07,06,09,28,15.00
2019,07,06,09,29,15.00
2019,07,06,09,30,15.10
2019,07,06,09,31,15.10
2019,07,06,09,32,15.10
2019,07,06,09,33,15.10
2019,07,06,09,34,15.10
2019,07,06,09,35,15.10
2019,07,06,09,36,15.00
2019,07,06,09,37,14.90
2019,07,06,09,38,14.90
2019,07,06,09,39,14.80
2019,07,06,09,40,14.60
2019,07,06,09,41,14.30
2019,07,06,09,42,14.10
2019,07,06,09,43,13.90
2019,07,06,09,44,13.90
2019,07,06,09,45,13.90
2019,07,06,09,46,13.90
2019,07,06,09,47,13.90
2019,07,06,09,48,13.90
2019,07,06,09,49,14.00
2019,07,06,09,50,14.00
2019,07,06,09,51,14.10
2019,07,06,09,52,14.20
2019,07,06,09,53,14.30
2019,07,06,09,54,14.40
2019,07,06,09,55,14.60
2019,07,06,09,56,14.70
2019,07,06,09,57,14.90
2019,07,06,09,58,15.00
2019,07,06,09,59,15.10
2019,07,06,10,00,15.20
2019,07,06,10,01,15.30
2019,07,06,10,02,15.40
2019,07,06,10,03,15.50
2019,07,06,10,04,15.60
2019,07,06,10,05,15.70
2019,07,06,10,06,15.80
2019,07,06,10,07,15.80
2019,07,06,10,08,15.90
2019,07,06,10,09,16.00
2019,07,06,10,10,16.00
2019,07,06,10,11,15.90
2019,07,06,10,12,15.80
2019,07,06,10,13,15.70
2019,07,06,10,14,15.60
2019,07,06,10,15,15.50
2019,07,06,10,16,15.50
2019,07,06,10,17,15.40
2019,07,06,10,18,15.30
2019,07,06,10,19,15.30
2019,07,06,10,20,15.30
2019,07,06,10,21,15.30
2019,07,06,10,22,15.40
2019,07,06,10,23,15.40
2019,07,06,10,24,15.40
2019,07,06,10,25,15.40
2019,07,06,10,26,15.50
2019,07,06,10,27,15.50
2019,07,06,10,28,15.50
2019,07,06,10,29,15.50
2019,07,06,10,30,15.40
2019,07,06,10,31,15.40
2019,07,06,10,32,15.20
2019,07,06,10,33,15.00
2019,07,06,10,34,14.90
2019,07,06,10,35,14.80
2019,07,06,10,36,14.70
2019,07,06,10,37,14.60
2019,07,06,10,38,14.50
2019,07,06,10,39,14.60
2019,07,06,10,40,14.70
2019,07,06,10,41,14.70
2019,07,06,10,42,14.70
2019,07,06,10,43,14.70
2019,07,06,10,44,14.70
2019,07,06,10,45,14.60
2019,07,06,10,46,14.40
2019,07,06,10,47,14.30
2019,07,06,10,48,14.30
2019,07,06,10,49,14.40
2019,07,06,10,50,14.40
2019,07,06,10,51,14.50
2019,07,06,10,52,14.60
2019,07,06,10,53,14.80
2019,07,06,10,54,14.80
2019,07,06,10,55,14.80
2019,07,06,10,56,14.80
2019,07,06,10,57,14.90
2019,07,06,10,58,14.90
2019,07,06,10,59,14.90
2019,07,06,11,00,14.90
2019,07,06,11,01,14.90
2019,07,06,11,02,14.90
2019,07,06,11,03,14.90
2019,07,06,11,04,14.90
2019,07,06,11,05,14.90
2019,07,06,11,06,14.80
2019,07,06,11,07,14.80
2019,07,06,11,08,14.80
2019,07,06,11,09,14.90
2019,07,06,11,10,14.90
2019,07,06,11,11,14.90
2019,07,06,11,12,14.90
2019,07,06,11,13,14.90
2019,07,06,11,14,15.00
2019,07,06,11,15,15.00
2019,07,06,11,16,15.00
2019,07,06,11,17,15.00
2019,07,06,11,18,15.10
2019,07,06,11,19,15.10
2019,07,06,11,20,15.10
2019,07,06,11,21,15.00
2019,07,06,11,22,14.90
2019,07,06,11,23,14.90
2019,07,06,11,24,14.90
2019,07,06,11,25,14.90
2019,07,06,11,26,14.90
2019,07,06,11,27,14.90
2019,07,06,11,28,15.00
2019,07,06,11,29,15.00
2019,07,06,11,30,15.00
2019,07,06,11,31,15.20
2019,07,06,11,32,15.30
2019,07,06,11,33,15.40
2019,07,06,11,34,15.60
2019,07,06,11,35,15.60
2019,07,06,11,36,15.80
2019,07,06,11,37,15.90
2019,07,06,11,38,15.80
2019,07,06,11,39,15.80
2019,07,06,11,40,15.60
2019,07,06,11,41,15.50
2019,07,06,11,42,15.30
2019,07,06,11,43,15.30
2019,07,06,11,44,15.20
2019,07,06,11,45,15.20
2019,07,06,11,46,15.30
2019,07,06,11,47,15.40
2019,07,06,11,48,15.60
2019,07,06,11,49,15.80
2019,07,06,11,50,16.10
2019,07,06,11,51,16.30
2019,07,06,11,52,16.40
2019,07,06,11,53,16.60
2019,07,06,11,54,16.80
2019,07,06,11,55,16.90
2019,07,06,11,56,17.10
2019,07,06,11,57,17.30
2019,07,06,11,58,17.40
2019,07,06,11,59,17.60
2019,07,06,12,00,17.70
2019,07,06,12,01,17.90
2019,07,06,12,02,18.00
2019,07,06,12,03,18.30
2019,07,06,12,04,18.50
2019,07,06,12,05,18.80
2019,07,06,12,06,19.00
2019,07,06,12,07,19.20
2019,07,06,12,08,19.40
2019,07,06,12,09,19.50
2019,07,06,12,10,19.70
2019,07,06,12,11,19.90
2019,07,06,12,12,20.00
2019,07,06,12,13,20.10
2019,07,06,12,14,20.20
2019,07,06,12,15,20.20
2019,07,06,12,16,20.20
2019,07,06,12,17,20.20
2019,07,06,12,18,20.20
2019,07,06,12,19,20.20
2019,07,06,12,20,20.10
2019,07,06,12,21,20.10
2019,07,06,12,22,20.10
2019,07,06,12,23,20.10
2019,07,06,12,24,20.10
2019,07,06,12,25,20.10
2019,07,06,12,26,20.20
2019,07,06,12,27,20.30
2019,07,06,12,28,20.40
2019,07,06,12,29,20.40
2019,07,06,12,30,20.30
2019,07,06,12,31,20.30
2019,07,06,12,32,20.30
2019,07,06,12,33,20.30
2019,07,06,12,34,20.30
2019,07,06,12,35,20.30
2019,07,06,12,36,20.30
2019,07,06,12,37,20.20
2019,07,06,12,38,20.20
2019,07,06,12,39,20.20
2019,07,06,12,40,20.20
2019,07,06,12,41,20.20
2019,07,06,12,42,20.20
2019,07,06,12,43,20.20
2019,07,06,12,44,20.20
2019,07,06,12,45,20.20
2019,07,06,12,46,20.20
2019,07,06,12,47,20.20
2019,07,06,12,48,20.20
2019,07,06,12,49,20.20
2019,07,06,12,50,20.20
2019,07,06,12,51,20.30
2019,07,06,12,52,20.40
2019,07,06,12,53,20.40
2019,07,06,12,54,20.40
2019,07,06,12,55,20.50
2019,07,06,12,56,20.50
2019,07,06,12,57,20.50
2019,07,06,12,58,20.50
2019,07,06,12,59,20.70
2019,07,06,13,00,20.70
2019,07,06,13,01,20.70
2019,07,06,13,02,20.70
2019,07,06,13,03,20.70
2019,07,06,13,04,20.60
2019,07,06,13,05,20.50
2019,07,06,13,06,20.60
2019,07,06,13,07,20.50
2019,07,06,13,08,20.40
2019,07,06,13,09,20.40
2019,07,06,13,10,20.50
2019,07,06,13,11,20.40
2019,07,06,13,12,20.30
2019,07,06,13,13,20.30
2019,07,06,13,14,20.30
2019,07,06,13,15,20.20
2019,07,06,13,16,20.30
2019,07,06,13,17,20.30
2019,07,06,13,18,20.30
2019,07,06,13,19,20.30
2019,07,06,13,20,20.40
2019,07,06,13,21,20.40
2019,07,06,13,22,20.50
2019,07,06,13,23,20.40
2019,07,06,13,24,20.30
2019,07,06,13,25,20.20
2019,07,06,13,26,20.20
2019,07,06,13,27,20.20
2019,07,06,13,28,20.30
2019,07,06,13,29,20.30
2019,07,06,13,30,20.40
2019,07,06,13,31,20.40
2019,07,06,13,32,20.40
2019,07,06,13,33,20.40
2019,07,06,13,34,20.30
2019,07,06,13,35,20.40
2019,07,06,13,36,20.40
2019,07,06,13,37,20.30
2019,07,06,13,38,20.30
2019,07,06,13,39,20.30
2019,07,06,13,40,20.40
2019,07,06,13,41,20.50
2019,07,06,13,42,20.70
2019,07,06,13,43,20.90
2019,07,06,13,44,20.90
2019,07,06,13,45,20.90
2019,07,06,13,46,20.80
2019,07,06,13,47,20.80
2019,07,06,13,48,20.70
2019,07,06,13,49,20.80
2019,07,06,13,50,20.80
2019,07,06,13,51,20.70
2019,07,06,13,52,20.50
2019,07,06,13,53,20.40
2019,07,06,13,54,20.20
2019,07,06,13,55,20.00
2019,07,06,13,56,19.90
2019,07,06,13,57,19.70
2019,07,06,13,58,19.50
2019,07,06,13,59,19.40
2019,07,06,14,00,19.20
2019,07,06,14,01,19.20
2019,07,06,14,02,19.30
2019,07,06,14,03,19.50
2019,07,06,14,04,19.70
2019,07,06,14,05,19.80
2019,07,06,14,06,19.90
2019,07,06,14,07,20.10
2019,07,06,14,08,20.30
2019,07,06,14,09,20.50
2019,07,06,14,10,20.60
2019,07,06,14,11,20.60
2019,07,06,14,12,20.50
2019,07,06,14,13,20.50
2019,07,06,14,14,20.60
2019,07,06,14,15,20.50
2019,07,06,14,16,20.20
2019,07,06,14,17,20.00
2019,07,06,14,18,19.80
2019,07,06,14,19,19.80
2019,07,06,14,20,19.80
2019,07,06,14,21,19.90
2019,07,06,14,22,20.00
2019,07,06,14,23,20.10
2019,07,06,14,24,20.20
2019,07,06,14,25,20.20
2019,07,06,14,26,20.20
2019,07,06,14,27,20.20
2019,07,06,14,28,20.20
2019,07,06,14,29,20.20
2019,07,06,14,30,20.30
2019,07,06,14,31,20.30
2019,07,06,14,32,20.20
2019,07,06,14,33,20.20
2019,07,06,14,34,20.20
2019,07,06,14,35,20.20
2019,07,06,14,36,20.20
2019,07,06,14,37,20.20
2019,07,06,14,38,20.30
2019,07,06,14,39,20.30
2019,07,06,14,40,20.30
2019,07,06,14,41,20.20
2019,07,06,14,42,20.20
2019,07,06,14,43,20.20
2019,07,06,14,44,20.20
2019,07,06,14,45,19.90
2019,07,06,14,46,19.40
2019,07,06,14,47,19.00
2019,07,06,14,48,18.80
2019,07,06,14,49,18.60
2019,07,06,14,50,18.40
2019,07,06,14,51,18.20
2019,07,06,14,52,18.00
2019,07,06,14,53,17.80
2019,07,06,14,54,17.70
2019,07,06,14,55,17.70
2019,07,06,14,56,17.70
2019,07,06,14,57,17.60
2019,07,06,14,58,17.60
2019,07,06,14,59,17.60
2019,07,06,15,00,17.50
2019,07,06,15,01,17.40
2019,07,06,15,02,17.30
2019,07,06,15,03,17.20
2019,07,06,15,04,17.10
2019,07,06,15,05,17.10
2019,07,06,15,06,17.00
2019,07,06,15,07,17.00
2019,07,06,15,08,16.90
2019,07,06,15,09,16.80
2019,07,06,15,10,16.70
2019,07,06,15,11,16.60
2019,07,06,15,12,16.50
2019,07,06,15,13,16.40
2019,07,06,15,14,16.30
2019,07,06,15,15,16.30
2019,07,06,15,16,16.30
2019,07,06,15,17,16.30
2019,07,06,15,18,16.30
2019,07,06,15,19,16.30
2019,07,06,15,20,16.20
2019,07,06,15,21,16.20
2019,07,06,15,22,16.20
2019,07,06,15,23,16.20
2019,07,06,15,24,16.10
2019,07,06,15,25,16.10
2019,07,06,15,26,16.20
2019,07,06,15,27,16.20
2019,07,06,15,28,16.10
2019,07,06,15,29,16.20
2019,07,06,15,30,16.20
2019,07,06,15,31,16.20
2019,07,06,15,32,16.30
2019,07,06,15,33,16.40
2019,07,06,15,34,16.40
2019,07,06,15,35,16.40
2019,07,06,15,36,16.50
2019,07,06,15,37,16.60
2019,07,06,15,38,16.70
2019,07,06,15,39,16.80
2019,07,06,15,40,16.90
2019,07,06,15,41,16.90
2019,07,06,15,42,17.00
2019,07,06,15,43,17.00
2019,07,06,15,44,16.90
2019,07,06,15,45,16.90
2019,07,06,15,46,16.80
2019,07,06,15,47,16.70
2019,07,06,15,48,16.70
2019,07,06,15,49,16.60
2019,07,06,15,50,16.60
2019,07,06,15,51,16.50
2019,07,06,15,52,16.40
2019,07,06,15,53,16.50
2019,07,06,15,54,16.60
2019,07,06,15,55,16.80
2019,07,06,15,56,16.90
2019,07,06,15,57,16.90
2019,07,06,15,58,16.90
2019,07,06,15,59,16.90
2019,07,06,16,00,16.90
2019,07,06,16,01,16.90
2019,07,06,16,02,16.90
2019,07,06,16,03,16.80
2019,07,06,16,04,16.80
2019,07,06,16,05,16.80
2019,07,06,16,06,16.80
2019,07,06,16,07,16.80
2019,07,06,16,08,16.80
2019,07,06,16,09,16.90
2019,07,06,16,10,16.90
2019,07,06,16,11,17.00
2019,07,06,16,12,17.00
2019,07,06,16,13,16.90
2019,07,06,16,14,17.00
2019,07,06,16,15,17.00
2019,07,06,16,16,16.90
2019,07,06,16,17,16.90
2019,07,06,16,18,16.80
2019,07,06,16,19,16.70
2019,07,06,16,20,16.70
2019,07,06,16,21,16.70
2019,07,06,16,22,16.60
2019,07,06,16,23,16.60
2019,07,06,16,24,16.50
2019,07,06,16,25,16.40
2019,07,06,16,26,16.40
2019,07,06,16,27,16.40
2019,07,06,16,28,16.40
2019,07,06,16,29,16.30
2019,07,06,16,30,16.20
2019,07,06,16,31,16.20
2019,07,06,16,32,16.10
2019,07,06,16,33,16.00
2019,07,06,16,34,15.90
2019,07,06,16,35,15.80
2019,07,06,16,36,15.80
2019,07,06,16,37,15.70
2019,07,06,16,38,15.60
2019,07,06,16,39,15.60
2019,07,06,16,40,15.60
2019,07,06,16,41,15.70
2019,07,06,16,42,15.70
2019,07,06,16,43,15.70
2019,07,06,16,44,15.70
2019,07,06,16,45,15.70
2019,07,06,16,46,15.80
2019,07,06,16,47,15.80
2019,07,06,16,48,15.70
2019,07,06,16,49,15.70
2019,07,06,16,50,15.70
2019,07,06,16,51,15.70
2019,07,06,16,52,15.70
2019,07,06,16,53,15.80
2019,07,06,16,54,15.80
2019,07,06,16,55,15.80
2019,07,06,16,56,15.80
2019,07,06,16,57,15.70
2019,07,06,16,58,15.50
2019,07,06,16,59,15.40
2019,07,06,17,00,15.40
2019,07,06,17,01,15.40
2019,07,06,17,02,15.40
2019,07,06,17,03,15.40
2019,07,06,17,04,15.30
2019,07,06,17,05,15.30
2019,07,06,17,06,15.30
2019,07,06,17,07,15.20
2019,07,06,17,08,15.20
2019,07,06,17,09,15.20
2019,07,06,17,10,15.10
2019,07,06,17,11,15.00
2019,07,06,17,12,15.00
2019,07,06,17,13,15.00
2019,07,06,17,14,14.90
2019,07,06,17,15,14.90
2019,07,06,17,16,14.80
2019,07,06,17,17,14.80
2019,07,06,17,18,14.80
2019,07,06,17,19,14.80